Deering, AK

12:22 AM AKST on January 20, 2018 (GMT -0900)
Deering (New)

Weather History for PADE - June, 2013

Change the Weather History Date:

Thursday, June 20, 2013

  Actual Average (PAOT) Record (PAOT)
Temperature  
Mean Temperature 68 °F -  
Max Temperature 75 °F 53 °F 82 °F (1991)
Min Temperature 57 °F 40 °F 30 °F (1964)
Cooling Degree Days 3    
Growing Degree Days 18 (Base 50)    
Moisture  
Dew Point 48 °F    
Average Humidity 50    
Maximum Humidity 72    
Minimum Humidity 31    
Precipitation  
Precipitation 0.00 in - - ()
Sea Level Pressure  
Sea Level Pressure 29.76 in    
Wind  
Wind Speed 7 mph (SSE)    
Max Wind Speed 22 mph    
Max Gust Speed 28 mph    
Visibility 10 miles    
Events      
Averages and records for this station are not official NWS values.
T = Trace of Precipitation, MM = Missing Value Source: NWS Daily Summary

Daily Weather History Graph

Daily Weather History Graph

Search for Another Location

Airport or City:

Trip Planner

Search our weather history database for the weather conditions in past years. The results will help you decide how hot, cold, wet, or windy it might be!

Date:

Astronomy

Jun. 20, 2013 Rise Set
Actual Time 3:25 AM AKDT 2:20 AM AKDT
Civil Twilight Sun does not rise Sun does not rise
Nautical Twilight Sun does not rise Sun does not rise
Astronomical Twilight Sun does not rise Sun does not rise
Moon 10:00 PM AKDT 3:00 AM AKDT
Length of Visible Light 24h 00m
Length of Day
22h 55m
Waxing Gibbous, 90% of the Moon is Illuminated
Jun 20
Waxing Gibbous
Jun 23
Full
Jun 29
Last Quarter
Jul 7
New
Jul 15
First Quarter

Hourly Weather History & Observations

Time (AKDT) Temp. Dew Point Humidity Pressure Visibility Wind Dir Wind Speed Gust Speed Precip Events Conditions
12:53 AM 70.0 °F 51.1 °F 51% 29.64 in 10.0 mi South 6.9 mph - N/A   Clear
1:53 AM 64.0 °F 50.0 °F 60% 29.65 in 10.0 mi Calm Calm - N/A   Clear
2:53 AM 66.0 °F 50.0 °F 56% 29.66 in 7.0 mi Calm Calm - N/A   Clear
3:53 AM 62.1 °F 52.0 °F 70% 29.68 in 8.0 mi Calm Calm - N/A   Clear
4:53 AM 61.0 °F 52.0 °F 72% 29.68 in 10.0 mi Variable 3.5 mph - N/A   Clear
5:53 AM 62.1 °F 51.1 °F 67% 29.70 in 10.0 mi South 15.0 mph - N/A   Clear
6:53 AM 63.0 °F 52.0 °F 67% 29.72 in 10.0 mi Variable 4.6 mph - N/A   Clear
7:53 AM 64.9 °F 53.1 °F 65% 29.75 in 10.0 mi SSW 3.5 mph - N/A   Clear
8:53 AM 66.0 °F 52.0 °F 60% 29.76 in 10.0 mi SW 5.8 mph - N/A   Clear
9:53 AM 66.9 °F 52.0 °F 59% 29.78 in 10.0 mi NE 4.6 mph - N/A   Clear
10:53 AM 68.0 °F 52.0 °F 56% 29.78 in 10.0 mi SSE 13.8 mph - N/A   Scattered Clouds
11:53 AM 70.0 °F 52.0 °F 53% 29.79 in 10.0 mi SSE 12.7 mph 19.6 mph N/A   Mostly Cloudy
12:53 PM 73.0 °F 51.1 °F 46% 29.80 in 10.0 mi SSE 8.1 mph 19.6 mph N/A   Mostly Cloudy
1:53 PM 72.0 °F 46.0 °F 40% 29.80 in 10.0 mi SE 21.9 mph 27.6 mph N/A   Clear
2:53 PM 72.0 °F 42.1 °F 34% 29.81 in 10.0 mi SSE 15.0 mph 26.5 mph N/A   Clear
3:53 PM 73.9 °F 44.1 °F 34% 29.81 in 10.0 mi South 17.3 mph 24.2 mph N/A   Clear
4:53 PM 75.0 °F 42.1 °F 31% 29.81 in 10.0 mi South 17.3 mph 25.3 mph N/A   Clear
5:53 PM 75.0 °F 43.0 °F 32% 29.80 in 10.0 mi South 21.9 mph - N/A   Clear
6:53 PM 73.0 °F 42.1 °F 33% 29.81 in 10.0 mi South 10.4 mph 21.9 mph N/A   Clear
7:53 PM 73.0 °F 43.0 °F 34% 29.81 in 10.0 mi South 10.4 mph 19.6 mph N/A   Mostly Cloudy
8:53 PM 72.0 °F 43.0 °F 35% 29.81 in 10.0 mi South 10.4 mph - N/A   Clear
9:53 PM 72.0 °F 43.0 °F 35% 29.81 in 10.0 mi SSE 10.4 mph - N/A   Scattered Clouds
10:53 PM 69.1 °F 44.1 °F 40% 29.81 in 10.0 mi SSW 8.1 mph - N/A   Mostly Cloudy
11:53 PM 57.0 °F 43.0 °F 59% 29.83 in 10.0 mi Calm Calm - N/A   Partly Cloudy